Weather in Chinyavoryk

Russia / Komi Republic     63°12′31″N   52°40′12″E
temp.,
°C
wind,
m/s
gust,
m/s
humid.,
%
clouds,
%
prec.,
mm/h
press.,
hPa
HPBL,
m
17 june, thu
thu1700:00+7nnw310842 0.1 1009443
03:00+5nnw38865 0.1 1011453
06:00+9nnw355569 0.0 10131027
09:00+12nw344062 0.0 10131494
12:00+16nw3431100 0.0 10132267
15:00+15nnw5438100 0.0 10141883
18:00+15nw353427 0.0 10152066
21:00+11nw385833 0.0 1017257
18 june, fri
fri1800:00+7nw24782 0.0 102088
03:00+7w11771 0.0 102030
06:00+12wsw355071 0.0 1020558
09:00+16w4639100 0.0 10192067
12:00+17w5830100 0.0 10182136
15:00+11wsw31087100 0.9 1018725
18:00+11sw41090100 0.3 1017796
21:00+10wsw269698 0.3 1016399
19 june, sat
sat1900:00+11sw2598100 0.0 1015264
03:00+11sw2698100 0.0 1014269
06:00+13ssw378993 0.0 1012339
09:00+13sw4994100 1.1 1011487
12:00+13sw41395100 2.7 1009608
15:00+16w5118786 2.7 1009992
18:00+18nw514759 0.8 10091558
21:00+16nw613573 0.8 10121289
20 june, sun
sun2000:00+10n4107666 0.0 1016867
03:00+8n397816 0.0 1019676
06:00+11n366011 0.0 1021827
09:00+15nnw34445 0.0 10211286
12:00+19nnw23335 0.0 10201710
15:00+20nw2329100 0.0 10202106
18:00+14nw2356100 0.0 1021107
21:00+12sse0164100 0.1 102010
21 june, mon
mon2100:00+12sse3767100 0.1 1018199
03:00+13sse3116196 0.1 1017353
06:00+16s4105882 0.2 1014401
09:00+22ssw3549100 0.2 1013759
12:00+27wsw35402 0.0 10111743
15:00+21w257567 0.6 101297
18:00+25wnw365215 0.1 1012730
21:00+20wnw3959100 0.1 1013254